Regional Weather Roundup
Issued by NWS

Home | Current Version | Previous Version | Graphics & Text | Print | Product List | Glossary On
Versions: 1 2 3 4 5 6 7 8 9 10 11 12 13 14 15 16 17 18 19 20 21 22 23 24 25 26 27 28 29 30 31 32 33 34 35 36 37 38 39 40 41 42 43 44 45 46 47 48 49 50
024
ASUS44 KJAN 262203
RWRMS

MISSISSIPPI HOURLY WEATHER ROUNDUP
NATIONAL WEATHER SERVICE JACKSON MS
500 PM CDT TUE AUG 26 2014

NOTE: "FAIR: INDICATES FEW OR NO CLOUDS BELOW 12,000 FEET WITH NO
SIGNIFICANT WEATHER AND/OR OBSTRUCTIONS TO VISIBILITY.

MSZ001>002-007>008-010>013-018>021-025>028-034>036-262300-
NORTHWEST MISSISSIPPI

CITY           SKY/WX    TMP DP  RH WIND       PRES   REMARKS
CLARKSDALE     FAIR      90  70  51 CALM      30.03F HX  95
CLEVELAND      FAIR      90  66  44 NE9       30.01S HX  92
GREENWOOD      SUNNY     90  62  39 NE10      30.00F HX  90
GREENVILLE     SUNNY     91  63  39 NE7       29.99F HX  92
GRENADA        FAIR      88  63  42 E7        30.02F
OLIVE BRANCH   MOSUNNY   88  73  62 E7        30.04F HX  96
OXFORD         FAIR      86  64  48 CALM      30.05F
TUNICA         CLEAR     90  70  51 E5        30.02F HX  95
$$

MSZ003>006-009-014>017-022>024-029>033-037>039-262300-
NORTHEAST MISSISSIPPI

CITY           SKY/WX    TMP DP  RH WIND       PRES   REMARKS
BELMONT        FAIR      81  65  58 E3        30.06F
COLUMBUS AFB   SUNNY     90  62  38 N9        30.01F HX  90
CORINTH        FAIR      86  68  54 VRB6      30.04F
GOLDN TRIANGLE MOSUNNY   91  61  35 N10       30.02F HX  91
STARKVILLE     FAIR      90  59  35 NE9       30.01F
TUPELO         MOSUNNY   87  63  44 NE8       30.04F
$$

MSZ040-058-262300-
CENTRAL MISSISSIPPI

CITY           SKY/WX    TMP DP  RH WIND       PRES   REMARKS
JACKSON INTL   SUNNY     91  59  33 E9        30.00F HX  90
JACKSON HAWKNS SUNNY     90  60  36 NE6       30.00F
MERIDIAN KEY   MOSUNNY   91  57  31 VRB7      30.00F
MERIDIAN NAS   SUNNY     91  58  32 NE8       30.01F HX  90
RAYMOND        FAIR      91  86  84 E6        30.00F HX 122
VICKSBURG      SUNNY     91  61  36 E12G22    29.98F HX  91
$$

MSZ059>079-262300-
SOUTH MISSISSIPPI

CITY           SKY/WX    TMP DP  RH WIND       PRES   REMARKS
BROOKHAVEN     MOCLDY    86  64  48 NE3       30.02S
COLUMBIA       FAIR      88  66  48 MISG      29.97F HX  90
HATTIESBURG    SUNNY     91  62  37 E12       29.98F HX  91
MCCOMB         PTSUNNY   88  62  41 E6        29.99F
NATCHEZ        MOSUNNY   88  66  48 NE10      29.99F HX  90
PINE BELT      MOSUNNY   90  61  37 NE8       30.01S
$$

MSZ080>082-262300-
COASTAL MISSISSIPPI

CITY           SKY/WX    TMP DP  RH WIND       PRES   REMARKS
BAY ST LOUIS   MOSUNNY  N/A N/A N/A SE6       29.96S
BILOXI         MOSUNNY   88  72  60 SE10      29.96F HX  95
PASCAGOULA     MOSUNNY   87  73  62 S7        29.95F HX  94
GULFPORT       MOSUNNY   87  72  60 SE8       29.96S HX  93
$$



USA.gov is the U.S. government's official web portal to all federal, state and local government web resources and services.